Wind_Speed
12 14 16 17 22 26 26 27 23 19 23 24 22 22 22 24 27 27 26 25 24 25 25 25 24 22 21 21 20 19 19 18 18 19 18 16 15 15 15 15 15 14 12 10 11 11 9 9 10 9 8 9 8 8 7 6 7 7 7 7 7 7 8
10 13 14 16 21 23 22 23 22 21 22 23 21 20 21 22 25 28 28 26 23 23 24 23 23 22 21 21 21 20 19 19 19 19 19 18 17 17 16 15 15 15 13 11 10 11 11 11 11 10 9 9 9 9 8 7 7 7 7 7 6 6 8
8 11 12 15 19 19 20 24 24 23 22 22 22 22 23 21 19 23 27 27 24 23 23 21 21 21 21 21 21 20 19 19 19 19 20 20 19 18 18 17 16 16 16 16 13 11 12 12 13 12 11 9 9 9 8 8 8 8 7 7 7 6 6
4 10 12 11 14 16 19 23 23 21 20 20 20 23 25 24 21 22 24 26 24 22 22 21 20 20 20 21 21 20 20 20 19 20 20 19 19 18 18 18 18 17 16 17 16 13 12 13 13 14 12 10 10 10 9 9 9 8 8 7 7 7 6
8 11 16 10 12 14 15 18 19 19 20 19 19 21 23 24 25 24 25 26 23 21 23 21 19 19 20 20 20 20 20 19 20 20 20 19 19 19 18 18 19 18 17 17 16 15 14 14 14 14 14 13 13 12 10 10 10 9 9 9 8 8 7
9 11 15 13 14 12 10 14 18 20 22 21 20 20 20 21 23 23 24 27 24 21 23 22 20 20 20 20 21 20 20 20 20 20 20 20 20 19 19 18 18 18 18 18 17 17 17 16 15 14 14 14 14 13 12 11 11 11 10 10 9 9 8
8 10 14 14 15 14 8 5 12 20 24 21 18 18 18 19 22 22 23 25 24 22 21 21 21 21 20 21 23 22 22 22 22 21 20 21 21 21 20 20 19 18 18 18 17 17 18 18 17 14 14 14 14 13 13 12 12 11 11 11 11 10 9
5 8 13 14 14 16 16 13 8 11 17 18 14 13 15 18 20 22 22 22 22 21 20 19 20 22 22 23 23 23 23 23 23 23 22 21 21 22 21 21 21 20 19 19 18 18 18 19 19 17 16 15 14 14 14 14 13 12 12 12 12 12 11
6 8 11 13 13 14 14 14 14 12 8 10 10 9 13 16 18 19 20 22 22 21 19 18 20 24 25 24 22 22 24 24 24 24 24 22 21 21 21 21 21 22 21 20 19 19 19 18 18 19 19 17 16 15 15 15 15 14 14 13 13 13 12
10 10 13 13 14 14 13 12 12 14 15 12 9 10 13 15 17 18 19 21 21 20 19 19 21 23 25 24 22 22 24 25 25 24 24 24 22 21 20 20 20 21 22 20 19 19 20 19 18 18 19 19 18 18 17 16 16 16 16 15 15 14 14
14 13 12 12 13 13 14 16 15 14 17 17 13 12 14 15 17 18 17 19 20 19 18 18 19 21 23 22 21 22 23 23 24 25 26 26 23 21 20 20 20 20 21 21 19 19 19 20 19 18 19 20 20 21 20 19 18 18 17 17 17 17 16
15 15 14 14 14 15 16 18 19 18 16 17 16 14 14 14 15 16 15 17 19 17 14 14 15 17 18 19 20 21 24 24 24 26 27 25 24 22 20 19 19 19 20 20 20 19 19 19 20 20 20 20 20 21 22 21 21 21 20 18 17 17 17
14 15 16 16 16 17 18 19 21 21 18 16 15 15 15 14 14 15 15 16 17 17 15 14 15 15 16 18 19 22 25 27 26 26 25 23 22 22 21 20 19 19 20 20 20 20 19 19 20 20 21 21 22 22 21 22 22 22 22 20 18 17 17
14 15 16 17 18 18 19 19 20 20 19 18 15 12 12 12 12 14 16 16 17 17 16 16 16 14 13 15 18 22 26 25 23 22 22 21 21 21 22 21 20 19 20 20 20 20 20 20 19 20 20 21 23 23 22 22 23 23 23 23 21 19 18
15 16 16 17 18 19 19 19 19 19 19 19 16 13 11 10 10 11 13 14 14 14 13 14 15 14 13 13 13 16 20 18 15 15 16 18 20 19 20 23 23 21 21 21 20 20 20 20 19 19 20 20 21 22 22 22 23 24 24 24 24 23 21
15 16 16 17 18 18 18 18 19 20 20 19 17 14 12 10 8 7 9 9 9 11 11 12 14 13 12 12 11 11 11 11 11 12 14 15 16 17 18 23 25 23 23 21 20 20 20 19 20 20 20 20 20 21 22 22 23 24 25 25 25 25 24
14 15 15 16 17 17 18 18 18 19 19 19 19 16 14 13 9 5 6 6 7 9 11 11 12 11 9 9 10 11 11 10 10 12 13 12 14 16 17 20 22 23 23 20 18 21 21 20 20 21 20 20 21 21 22 22 22 23 25 26 25 25 25
13 14 15 15 16 16 16 17 17 17 17 17 17 17 16 15 13 10 5 3 4 6 9 9 7 8 9 8 7 8 10 12 12 12 12 9 10 14 16 18 20 22 23 20 18 20 23 23 23 24 23 22 21 21 22 23 22 23 25 26 26 26 26
12 13 14 14 15 15 15 16 16 16 16 16 15 16 15 14 13 13 11 7 4 1 4 6 5 6 8 8 6 5 7 9 11 12 12 10 10 14 15 16 18 19 21 21 20 22 25 25 26 27 28 27 25 23 23 24 24 24 25 26 27 27 27
11 12 13 13 14 14 15 15 15 15 15 14 13 13 14 14 13 12 12 10 9 9 6 3 1 2 4 5 5 6 6 7 8 10 11 12 12 13 13 13 14 15 16 19 21 24 26 26 27 28 29 30 31 29 27 25 24 25 26 27 28 29 29
10 10 11 12 12 12 13 14 15 15 14 13 12 11 12 14 12 11 11 10 11 13 13 11 10 7 5 4 5 5 5 5 6 6 7 11 12 13 14 14 15 16 17 18 21 23 24 26 27 28 28 29 31 32 31 30 27 26 26 26 28 29 30
8 9 10 11 11 11 11 12 13 13 13 12 10 9 12 13 11 10 10 10 12 15 14 11 10 11 12 8 5 4 4 3 4 4 4 9 10 12 13 14 15 16 18 19 21 23 24 24 26 27 27 27 28 31 33 32 31 30 29 28 27 28 28
7 8 9 9 9 10 10 10 12 12 11 11 8 9 12 13 11 10 9 9 11 13 12 10 7 10 14 13 10 9 9 7 7 7 5 6 9 11 13 14 14 14 15 17 19 22 23 24 25 26 27 27 27 29 31 32 32 32 32 31 31 30 30
7 8 8 8 8 9 9 10 11 10 10 9 8 10 12 12 11 9 8 8 9 10 10 8 7 11 14 15 14 13 11 8 8 9 9 7 4 7 11 14 14 14 14 15 18 20 22 24 26 27 27 27 27 27 29 31 31 31 31 31 31 33 34
6 7 7 8 8 8 9 11 10 9 9 8 8 11 12 10 9 9 7 9 9 9 8 7 9 13 14 15 15 14 12 10 8 8 10 10 6 5 9 11 13 15 16 16 17 19 20 22 24 26 27 28 27 27 28 30 31 31 30 30 31 31 33
5 5 6 7 8 8 9 10 9 8 9 10 10 11 10 8 8 8 9 12 11 9 7 7 9 14 16 16 15 15 13 13 11 9 9 9 9 7 7 8 11 14 17 17 18 19 20 21 23 25 26 26 26 26 26 27 29 29 29 30 30 30 31
4 5 5 6 9 9 8 7 8 8 9 10 11 11 9 9 9 9 11 12 11 9 10 12 15 17 18 18 17 15 15 15 14 12 10 9 9 9 9 8 9 11 13 15 18 19 20 21 22 24 26 25 25 25 23 23 25 25 25 26 27 27 29
4 4 5 7 8 8 7 7 8 8 9 10 10 10 9 10 10 12 14 13 12 11 12 14 18 20 21 21 20 18 17 17 16 16 15 13 12 12 12 11 11 11 11 13 16 17 19 20 22 23 25 26 26 25 23 23 23 23 24 26 26 26 28
4 5 6 7 8 8 9 9 9 10 10 10 11 10 10 11 11 13 14 13 12 12 12 14 18 21 23 24 23 21 20 19 18 18 17 17 16 16 16 15 15 14 15 16 17 18 19 20 20 22 23 24 24 23 23 24 24 22 25 28 29 29 30
5 6 7 7 8 9 10 10 11 12 12 11 12 12 12 12 12 12 12 11 13 15 16 18 19 20 22 23 23 24 24 23 21 19 19 19 19 18 18 18 18 19 19 19 20 20 20 20 20 20 20 21 19 18 21 25 26 24 24 25 27 29 30
4 5 6 7 8 9 10 12 13 14 13 13 13 13 13 13 13 13 13 14 16 18 19 19 19 19 21 23 24 25 26 26 25 23 22 21 20 19 19 20 21 21 21 22 22 21 19 19 19 18 18 18 16 14 16 19 21 24 25 24 24 26 28
4 5 6 7 8 10 11 12 13 14 14 14 13 13 13 13 14 15 16 17 18 19 19 20 20 21 21 22 23 25 26 26 25 24 23 22 22 23 22 21 22 22 21 20 20 20 18 17 17 16 15 15 16 16 17 17 16 20 25 25 25 25 26
4 6 7 8 9 10 12 13 13 14 15 16 16 16 15 15 16 16 17 18 19 19 20 20 21 21 21 20 21 22 22 21 20 19 19 20 21 22 21 18 18 19 19 18 18 18 17 15 15 14 15 16 18 19 19 18 17 18 21 24 26 26 26
4 6 7 8 10 11 12 12 13 15 16 17 18 19 18 18 18 18 18 18 19 19 21 21 21 21 21 19 18 18 17 17 16 16 16 17 17 17 17 17 16 17 18 17 15 15 14 12 12 13 15 19 22 24 24 20 18 17 17 20 24 25 25
5 6 7 9 10 10 11 12 13 15 16 17 18 19 19 19 20 20 19 19 18 19 20 21 21 22 22 21 18 17 16 15 15 15 15 14 15 16 17 17 16 18 19 19 19 20 20 20 20 21 23 26 29 31 31 29 25 21 18 17 19 21 23
6 7 8 8 9 10 11 12 14 15 16 17 17 18 18 19 19 19 19 18 18 19 19 20 21 22 23 21 19 17 16 16 16 16 17 17 19 21 22 23 22 23 25 27 28 28 29 30 32 32 31 32 32 32 31 31 31 28 26 23 21 20 21
7 8 9 10 10 11 12 13 14 15 16 16 17 17 17 17 17 18 18 18 18 19 20 20 21 22 22 22 20 20 20 20 19 20 20 21 22 23 25 27 29 29 30 32 34 36 35 34 33 31 30 31 33 32 31 31 30 29 29 29 28 26 26
9 10 11 12 12 13 14 14 14 15 15 16 16 17 17 18 18 18 18 18 19 20 20 21 22 23 23 23 23 23 23 23 22 22 22 22 23 24 24 27 30 33 34 34 34 34 30 26 24 26 29 32 33 33 32 31 29 28 28 28 28 29 30
Wind_Direction
182 186 185 194 200 198 195 192 188 189 192 193 197 199 192 192 194 189 190 197 199 197 196 199 205 206 205 206 208 208 208 209 210 207 201 198 202 209 209 207 211 212 207 210 212 208 207 195 193 205 205 198 200 195 192 188 180 178 178 180 181 182 182
177 179 183 193 197 196 195 193 193 192 189 186 190 194 190 193 198 194 192 196 197 197 197 199 203 203 203 205 206 208 209 210 211 211 210 205 201 206 209 205 209 214 204 202 220 220 208 201 197 204 209 203 204 204 197 194 189 184 180 182 184 182 181
180 189 187 196 196 190 189 192 198 199 194 189 190 194 194 197 200 195 195 197 194 197 199 198 202 203 203 205 206 208 210 211 212 212 213 212 207 206 206 202 205 213 206 197 206 217 214 209 202 204 208 203 207 213 207 200 198 194 190 189 190 182 177
135 188 188 205 198 187 190 193 197 202 201 200 199 199 200 203 204 200 198 198 196 198 201 200 203 205 206 207 208 211 212 211 213 214 213 213 213 209 206 205 204 206 212 206 198 201 214 217 209 208 209 201 202 214 217 210 205 204 202 199 196 189 188
59 148 160 168 169 178 201 201 199 203 206 205 201 202 203 201 203 204 202 201 202 201 202 204 205 206 209 210 209 213 216 215 214 214 211 209 213 212 206 209 209 204 210 214 204 198 206 214 214 212 210 205 203 210 220 218 211 212 210 206 205 197 194
55 113 135 132 132 149 196 205 205 210 212 207 201 207 209 198 199 202 200 202 205 202 201 205 206 207 211 212 211 212 215 218 217 216 212 206 210 214 208 210 214 209 209 212 209 205 204 205 210 217 217 211 207 209 218 222 217 217 216 212 212 207 197
62 92 112 107 96 90 94 154 198 207 206 199 197 209 205 193 201 207 202 201 203 202 202 205 207 208 212 217 218 216 215 217 216 214 214 210 209 212 210 210 213 212 212 213 211 210 211 209 205 212 222 218 211 209 214 223 224 221 222 219 215 213 209
86 98 109 101 79 67 61 63 105 171 191 189 190 203 189 181 196 206 206 202 201 203 204 205 208 211 216 221 223 222 220 221 217 211 213 214 211 210 211 212 210 209 212 214 214 211 214 218 211 207 214 215 213 209 209 223 231 224 223 226 221 217 214
83 65 74 81 78 72 60 56 73 88 120 162 177 182 171 175 190 199 204 205 207 210 210 210 213 214 218 221 221 221 221 225 224 215 211 214 214 210 210 212 211 210 209 211 216 215 213 220 221 214 213 211 211 212 209 219 233 230 222 227 232 226 216
83 67 65 71 77 79 70 65 73 73 76 99 136 155 159 174 190 198 206 209 212 217 216 217 217 215 218 218 217 219 221 224 224 216 211 212 215 214 211 212 213 213 212 209 213 219 217 217 220 222 225 219 213 214 211 211 227 234 226 222 230 234 224
95 94 93 92 89 84 77 75 76 74 75 81 95 130 153 171 186 196 207 210 211 215 215 214 214 214 217 215 213 218 222 225 224 218 214 211 211 213 213 213 214 216 217 213 211 217 223 222 219 220 229 231 223 221 219 212 215 227 229 224 226 234 234
102 99 99 99 94 85 80 81 80 75 76 81 84 101 128 155 177 186 195 202 207 210 207 206 211 216 216 210 209 219 226 227 224 220 219 214 209 211 213 215 216 216 219 218 214 215 221 228 228 222 224 232 232 229 228 224 219 223 229 229 226 233 240
106 100 94 90 86 82 82 87 86 78 76 84 88 92 102 122 152 168 176 185 192 198 200 202 209 216 219 217 219 225 228 227 221 218 219 216 211 211 213 214 217 218 220 220 218 217 218 225 233 233 229 230 233 233 232 234 232 230 233 234 228 229 239
104 100 93 86 82 79 78 79 79 77 75 80 95 107 106 111 130 150 167 173 175 183 194 201 206 212 223 227 228 231 231 229 225 219 218 219 217 216 217 215 213 218 223 224 222 219 219 222 229 238 237 233 234 235 234 236 239 238 239 240 236 228 231
97 95 91 86 81 76 75 73 71 73 73 76 90 110 116 114 120 138 159 172 176 177 184 196 205 214 227 233 238 239 234 237 242 230 221 222 216 212 216 215 213 217 220 224 227 224 221 222 224 232 238 237 239 239 237 237 240 243 244 245 245 238 232
93 90 86 84 83 78 75 73 69 69 71 71 78 92 105 109 115 138 158 175 186 183 186 197 204 211 224 241 261 262 242 244 258 245 236 235 223 213 215 216 218 220 216 217 226 227 226 226 223 227 233 237 240 243 243 239 238 243 248 249 250 248 242
91 88 84 80 81 79 75 73 69 67 67 66 67 73 83 86 82 111 170 201 213 208 212 220 221 225 238 253 268 272 260 258 263 254 252 254 239 230 227 224 224 223 218 216 219 220 224 227 224 225 230 234 236 238 241 241 238 239 247 252 254 253 250
89 87 86 79 76 75 72 69 67 65 64 64 65 66 70 71 67 69 96 172 219 227 225 220 221 237 247 249 256 271 270 262 257 257 262 266 250 237 232 229 228 225 223 225 221 217 221 223 221 222 224 228 234 235 236 240 240 239 242 249 255 257 256
90 85 83 80 75 71 68 65 62 62 61 60 61 62 62 64 62 59 62 61 47 25 208 198 197 222 234 239 247 263 265 256 254 257 263 269 255 237 232 235 237 233 229 229 227 225 226 226 223 222 220 221 224 228 233 238 242 243 242 244 251 256 257
83 82 77 74 72 69 66 62 57 59 59 57 58 59 59 60 56 52 55 50 37 45 66 70 14 266 244 253 263 265 262 263 270 267 256 252 246 239 242 247 245 242 238 233 233 235 235 234 232 230 228 226 224 223 227 231 236 242 246 247 248 252 255
74 76 72 68 66 65 64 56 50 53 55 53 55 50 49 56 54 49 52 44 36 51 60 42 18 8 356 325 292 288 286 281 292 288 251 239 238 240 248 251 247 246 246 243 241 242 242 241 239 238 239 239 235 232 231 231 232 236 243 249 251 252 254
77 71 67 65 61 60 61 49 42 46 48 47 47 32 31 44 48 47 52 42 34 47 56 48 28 14 11 10 356 348 350 339 348 349 278 245 239 237 239 243 244 245 248 248 246 246 246 246 244 244 244 245 244 241 240 239 238 239 241 245 250 253 255
89 76 66 63 59 59 55 39 34 39 40 40 34 15 20 29 29 37 52 46 36 39 45 48 35 11 11 14 12 9 6 4 15 12 333 274 250 239 236 238 241 241 246 253 253 250 249 249 248 247 247 247 248 246 245 244 244 243 243 244 247 251 253
91 79 66 57 55 54 37 21 28 33 29 30 19 6 15 17 11 23 37 33 35 40 37 30 9 357 4 9 9 14 14 7 6 6 358 342 280 233 232 240 246 245 245 250 254 252 250 248 247 247 248 250 250 248 247 247 246 246 246 247 248 249 251
74 66 58 51 46 36 16 12 25 27 20 19 3 359 9 8 8 20 10 355 10 29 32 21 352 343 349 357 2 8 11 3 352 343 342 341 323 252 231 236 244 247 246 248 253 255 254 252 250 249 249 250 249 248 247 246 246 247 247 247 248 249 250
68 52 44 38 23 13 10 14 19 15 9 3 354 358 5 2 4 4 341 336 350 6 11 358 337 331 333 339 348 352 352 352 349 338 330 331 324 297 265 251 249 248 247 248 252 255 258 260 259 257 255 252 251 252 253 252 252 252 252 252 250 250 250
67 47 33 20 10 11 15 14 10 5 1 356 354 357 355 351 353 343 329 333 343 345 337 326 321 322 323 325 332 336 334 335 336 334 331 328 322 309 292 281 271 260 255 255 256 257 260 263 264 264 262 259 256 255 256 258 257 254 256 257 255 255 257
45 33 19 14 14 16 13 7 1 356 352 351 352 351 346 341 332 321 323 331 334 331 328 321 319 319 318 318 321 322 322 323 324 325 326 326 324 318 309 300 291 283 279 276 273 272 272 271 271 271 269 265 262 259 259 261 262 263 266 266 263 262 263
27 18 10 10 9 3 358 354 348 343 346 347 344 341 339 337 330 326 331 335 330 325 323 319 317 317 317 318 319 317 316 317 317 316 315 316 318 317 312 306 299 293 290 289 291 292 289 285 284 285 284 280 275 271 267 262 259 262 267 266 262 258 259
22 12 5 3 360 350 344 340 332 331 337 339 335 331 330 333 337 339 339 331 318 315 317 319 320 320 318 318 317 316 314 312 311 309 306 305 307 308 307 305 303 300 299 299 299 300 298 296 296 297 299 298 293 283 273 264 256 254 261 265 263 259 258
13 11 2 359 354 343 337 335 331 327 327 326 327 329 329 329 329 327 324 318 314 317 320 321 320 318 316 315 315 315 314 312 310 309 306 303 301 299 299 298 297 298 300 302 303 304 302 301 301 303 307 311 307 292 280 274 263 255 259 266 267 261 256
3 3 357 355 350 341 337 336 332 329 325 320 319 322 321 318 315 312 311 311 314 319 321 318 317 316 316 316 316 316 316 316 315 314 311 307 303 301 300 300 299 300 303 305 307 307 306 307 309 310 306 303 301 293 289 286 273 257 255 261 266 265 258
349 350 346 345 342 338 337 335 331 330 326 320 317 314 310 308 307 307 306 306 310 315 316 317 320 320 318 318 317 316 316 316 314 312 308 305 305 304 302 300 299 300 302 305 307 306 307 307 303 294 284 282 285 288 289 289 285 273 261 256 261 267 266
338 337 332 332 332 332 332 330 327 326 324 320 317 314 310 307 304 302 302 304 307 311 312 314 316 316 316 317 315 313 311 308 306 304 300 297 296 294 290 287 285 283 282 284 285 284 284 281 272 271 279 284 287 289 290 288 290 290 280 265 261 264 267
321 321 322 325 326 326 326 325 323 321 319 318 318 316 315 313 310 308 308 309 311 312 311 311 311 309 311 314 314 312 309 305 301 299 294 289 285 281 278 278 277 272 267 261 256 255 259 263 266 271 279 283 284 286 288 286 285 286 285 279 269 264 264
311 314 317 317 318 319 320 318 318 317 316 316 315 315 315 315 314 316 316 315 315 315 313 312 310 308 308 311 312 311 308 305 302 296 289 284 281 278 276 274 269 263 261 260 259 261 266 272 277 280 283 284 283 284 286 287 286 284 280 276 271 265 262
305 309 312 314 314 315 314 313 314 314 314 314 313 313 312 312 313 314 314 314 314 313 311 311 309 307 307 308 307 303 300 299 298 296 292 290 288 286 285 283 280 276 274 273 275 278 282 285 287 286 286 286 285 285 286 286 288 287 283 279 274 269 263
301 304 308 310 311 310 310 312 313 312 311 311 311 310 309 308 307 307 307 308 309 308 307 307 307 305 303 303 302 301 300 299 297 293 291 290 288 286 285 285 287 287 287 287 288 289 290 290 287 286 287 289 289 289 288 288 289 290 288 285 282 278 271
Height
1519 1521 1523 1525 1527 1529 1531 1533 1534 1535 1537 1540 1542 1544 1546 1548 1548 1550 1552 1553 1555 1557 1559 1561 1562 1564 1565 1567 1569 1571 1572 1574 1575 1577 1578 1579 1580 1581 1582 1583 1584 1585 1586 1587 1588 1589 1590 1591 1591 1592 1593 1593 1594 1595 1595 1596 1597 1598 1598 1599 1600 1600 1601
1517 1520 1522 1523 1526 1528 1530 1531 1532 1533 1535 1539 1541 1544 1546 1548 1548 1549 1551 1553 1555 1557 1559 1560 1562 1563 1565 1566 1568 1570 1571 1573 1574 1576 1577 1578 1579 1579 1580 1582 1583 1584 1585 1587 1588 1588 1589 1590 1591 1592 1593 1593 1594 1594 1595 1596 1596 1597 1598 1599 1600 1600 1601
1517 1519 1521 1523 1525 1527 1529 1529 1530 1532 1535 1538 1540 1542 1544 1546 1548 1549 1551 1553 1555 1558 1560 1561 1562 1563 1564 1566 1567 1569 1570 1572 1573 1574 1576 1577 1578 1578 1579 1581 1582 1583 1584 1585 1587 1588 1588 1589 1590 1591 1592 1593 1594 1594 1595 1596 1596 1597 1598 1599 1599 1600 1600
1521 1520 1522 1525 1524 1526 1527 1528 1529 1531 1535 1538 1539 1541 1541 1543 1547 1549 1550 1553 1555 1558 1560 1561 1561 1562 1564 1565 1566 1568 1569 1571 1572 1574 1575 1576 1577 1578 1579 1580 1581 1582 1583 1584 1585 1587 1588 1588 1589 1590 1591 1592 1593 1594 1595 1595 1596 1597 1597 1598 1599 1599 1600
1524 1523 1525 1528 1527 1526 1525 1526 1530 1531 1534 1536 1538 1539 1539 1541 1545 1547 1549 1551 1554 1556 1557 1559 1561 1562 1564 1565 1566 1568 1569 1571 1572 1573 1575 1576 1577 1578 1579 1580 1580 1581 1582 1583 1584 1586 1587 1588 1588 1589 1590 1591 1592 1593 1594 1595 1595 1596 1597 1597 1598 1599 1599
1525 1524 1526 1529 1529 1529 1527 1528 1530 1530 1532 1534 1535 1538 1539 1543 1546 1547 1548 1549 1551 1553 1554 1557 1559 1561 1563 1564 1565 1567 1569 1571 1572 1573 1574 1575 1576 1577 1578 1580 1580 1581 1582 1582 1583 1585 1586 1587 1587 1588 1589 1590 1591 1592 1593 1594 1595 1596 1596 1597 1598 1598 1599
1526 1525 1526 1527 1528 1530 1530 1529 1529 1529 1531 1533 1535 1536 1538 1544 1547 1547 1547 1548 1549 1550 1552 1555 1557 1559 1562 1563 1565 1567 1568 1570 1571 1573 1574 1575 1575 1576 1577 1578 1579 1581 1582 1582 1583 1584 1584 1586 1587 1588 1588 1589 1590 1591 1592 1593 1594 1595 1596 1596 1597 1597 1598
1529 1527 1527 1527 1528 1529 1529 1529 1528 1529 1530 1532 1534 1534 1536 1542 1545 1546 1547 1547 1548 1548 1549 1552 1554 1557 1559 1561 1564 1565 1567 1568 1570 1572 1574 1574 1575 1575 1576 1577 1577 1579 1581 1582 1583 1583 1584 1584 1585 1587 1588 1588 1590 1591 1592 1592 1593 1594 1595 1595 1596 1597 1598
1529 1528 1527 1527 1529 1529 1528 1528 1529 1531 1532 1531 1532 1533 1536 1540 1542 1544 1544 1544 1546 1547 1548 1550 1551 1553 1556 1558 1562 1564 1566 1567 1568 1569 1571 1573 1574 1574 1575 1575 1576 1577 1579 1580 1581 1582 1583 1584 1584 1586 1587 1588 1589 1590 1591 1592 1592 1593 1594 1595 1595 1596 1597
1531 1530 1529 1529 1531 1531 1530 1529 1529 1531 1532 1531 1532 1533 1535 1538 1540 1541 1542 1543 1545 1546 1548 1550 1550 1552 1554 1556 1559 1561 1564 1566 1566 1568 1569 1571 1572 1573 1574 1575 1575 1576 1577 1579 1580 1581 1582 1583 1584 1585 1585 1587 1588 1589 1590 1591 1592 1592 1593 1594 1595 1595 1596
1534 1534 1533 1533 1534 1533 1533 1531 1529 1530 1530 1531 1532 1533 1534 1536 1538 1540 1542 1543 1544 1546 1548 1549 1551 1553 1554 1555 1557 1559 1561 1563 1565 1566 1567 1567 1569 1571 1573 1574 1575 1576 1576 1577 1579 1580 1581 1582 1583 1584 1585 1585 1587 1588 1589 1590 1591 1591 1592 1593 1594 1594 1595
1535 1535 1535 1535 1535 1534 1534 1533 1532 1532 1532 1532 1534 1534 1535 1536 1537 1539 1541 1543 1544 1546 1547 1549 1550 1552 1552 1554 1555 1557 1559 1561 1562 1563 1563 1564 1566 1568 1571 1573 1574 1575 1575 1576 1578 1580 1580 1581 1581 1583 1584 1584 1585 1586 1587 1589 1590 1590 1591 1592 1593 1593 1594
1535 1535 1536 1536 1536 1535 1534 1534 1534 1535 1535 1535 1536 1536 1536 1537 1538 1540 1541 1542 1544 1545 1546 1547 1548 1549 1549 1550 1552 1555 1557 1558 1558 1558 1559 1561 1563 1565 1568 1570 1572 1574 1574 1575 1577 1578 1580 1580 1580 1581 1582 1583 1584 1585 1586 1587 1588 1589 1590 1590 1592 1592 1593
1535 1535 1536 1536 1536 1536 1535 1536 1536 1537 1537 1537 1537 1538 1538 1539 1540 1541 1541 1543 1543 1543 1543 1544 1546 1548 1549 1550 1552 1555 1556 1555 1554 1555 1556 1558 1560 1563 1565 1567 1570 1572 1573 1574 1575 1576 1578 1579 1579 1579 1580 1581 1582 1583 1585 1585 1586 1587 1588 1589 1590 1591 1592
1534 1535 1536 1536 1537 1537 1537 1537 1538 1538 1539 1539 1538 1539 1540 1540 1541 1542 1543 1543 1542 1542 1543 1544 1546 1548 1550 1552 1552 1553 1553 1552 1552 1553 1553 1554 1555 1557 1561 1564 1566 1568 1570 1572 1574 1575 1576 1577 1579 1579 1578 1579 1580 1581 1583 1584 1584 1585 1586 1587 1588 1590 1591
1535 1536 1537 1537 1538 1538 1538 1539 1539 1539 1540 1540 1540 1539 1540 1540 1540 1541 1543 1543 1543 1543 1544 1545 1547 1549 1550 1551 1551 1550 1550 1550 1550 1551 1552 1553 1553 1555 1558 1561 1563 1565 1567 1569 1572 1574 1575 1576 1577 1577 1577 1577 1578 1579 1580 1581 1582 1583 1584 1585 1586 1587 1589
1536 1537 1538 1538 1539 1539 1540 1540 1541 1541 1541 1541 1542 1541 1541 1541 1540 1540 1541 1542 1542 1543 1544 1546 1548 1549 1550 1550 1549 1548 1548 1549 1550 1552 1553 1554 1555 1558 1560 1561 1562 1563 1565 1567 1569 1571 1573 1573 1574 1575 1576 1576 1576 1576 1577 1578 1579 1580 1581 1582 1584 1585 1586
1537 1538 1539 1539 1540 1540 1540 1541 1542 1542 1543 1543 1544 1544 1544 1545 1544 1544 1543 1543 1543 1543 1544 1546 1548 1548 1548 1549 1549 1547 1547 1549 1551 1551 1551 1553 1555 1557 1559 1560 1561 1562 1564 1566 1567 1569 1570 1570 1570 1570 1571 1572 1573 1574 1574 1575 1576 1577 1578 1579 1581 1582 1584
1538 1539 1540 1540 1541 1541 1541 1542 1542 1543 1544 1544 1545 1546 1546 1547 1547 1547 1547 1547 1547 1546 1547 1548 1549 1548 1548 1548 1549 1548 1548 1550 1550 1549 1551 1554 1556 1557 1558 1559 1560 1561 1563 1565 1567 1568 1568 1569 1568 1567 1567 1567 1568 1569 1571 1572 1573 1574 1575 1576 1577 1579 1580
1540 1540 1540 1541 1541 1541 1542 1542 1543 1543 1544 1545 1546 1546 1547 1547 1548 1549 1550 1550 1550 1549 1549 1550 1549 1549 1548 1548 1548 1549 1549 1549 1549 1550 1552 1554 1555 1555 1555 1557 1559 1560 1561 1562 1564 1566 1566 1567 1567 1567 1567 1566 1565 1565 1566 1568 1570 1571 1572 1573 1574 1575 1577
1541 1541 1541 1542 1541 1542 1543 1543 1543 1544 1545 1546 1547 1547 1547 1548 1548 1550 1550 1550 1550 1549 1549 1549 1549 1548 1548 1548 1548 1548 1548 1548 1549 1550 1551 1552 1552 1553 1554 1555 1557 1558 1559 1560 1561 1563 1564 1564 1564 1565 1566 1566 1566 1565 1564 1565 1567 1568 1570 1571 1571 1573 1574
1542 1542 1542 1542 1542 1543 1543 1543 1544 1545 1545 1547 1547 1547 1548 1548 1549 1550 1550 1550 1550 1549 1549 1550 1549 1548 1548 1548 1548 1548 1548 1548 1548 1549 1550 1550 1551 1552 1553 1554 1554 1555 1556 1557 1559 1560 1561 1561 1561 1561 1562 1563 1563 1563 1562 1562 1564 1565 1567 1568 1569 1570 1571
1542 1543 1543 1543 1543 1543 1543 1544 1544 1545 1546 1547 1548 1547 1547 1548 1549 1550 1550 1551 1551 1550 1550 1551 1550 1549 1549 1548 1548 1549 1549 1549 1549 1549 1549 1549 1550 1551 1552 1553 1553 1553 1555 1555 1556 1557 1557 1558 1558 1558 1558 1558 1558 1558 1558 1559 1560 1562 1563 1565 1567 1568 1568
1542 1543 1543 1543 1543 1543 1544 1544 1544 1545 1546 1547 1547 1547 1547 1548 1548 1549 1549 1550 1551 1552 1552 1551 1550 1550 1549 1549 1549 1549 1549 1549 1549 1549 1549 1549 1548 1549 1550 1551 1551 1551 1552 1553 1554 1554 1554 1553 1553 1553 1553 1554 1554 1555 1555 1556 1558 1559 1560 1562 1564 1565 1565
1542 1543 1543 1543 1543 1543 1543 1543 1544 1545 1546 1547 1546 1546 1547 1548 1548 1548 1548 1549 1549 1551 1552 1551 1550 1549 1549 1549 1549 1549 1549 1550 1550 1549 1549 1548 1547 1547 1547 1548 1549 1549 1550 1550 1551 1551 1551 1551 1550 1550 1550 1550 1551 1551 1552 1553 1554 1556 1558 1559 1560 1561 1562
1542 1542 1543 1543 1542 1542 1543 1544 1544 1545 1545 1545 1545 1546 1547 1547 1547 1547 1547 1547 1548 1549 1550 1550 1549 1548 1548 1548 1548 1549 1549 1549 1549 1549 1549 1548 1547 1546 1546 1545 1546 1546 1547 1547 1548 1549 1550 1549 1548 1548 1547 1548 1548 1548 1550 1551 1553 1555 1555 1556 1557 1557 1558
1542 1542 1543 1543 1542 1542 1543 1544 1543 1544 1544 1544 1544 1545 1546 1545 1545 1546 1545 1546 1547 1547 1547 1547 1547 1546 1546 1547 1547 1548 1548 1548 1548 1548 1548 1548 1547 1546 1545 1544 1544 1545 1545 1545 1546 1546 1547 1547 1546 1545 1545 1545 1545 1546 1548 1549 1549 1550 1551 1552 1553 1554 1554
1542 1542 1542 1542 1542 1542 1542 1542 1543 1543 1543 1544 1544 1544 1544 1543 1544 1543 1544 1544 1545 1545 1545 1545 1544 1544 1544 1544 1545 1545 1546 1546 1546 1546 1546 1546 1545 1545 1544 1543 1543 1544 1544 1544 1544 1544 1544 1545 1544 1543 1542 1542 1542 1544 1545 1545 1546 1549 1552 1552 1552 1551 1551
1541 1541 1541 1541 1542 1541 1540 1541 1541 1541 1542 1542 1542 1542 1541 1542 1542 1541 1542 1543 1543 1543 1543 1543 1542 1542 1542 1542 1542 1543 1543 1544 1544 1544 1544 1544 1544 1543 1542 1541 1541 1542 1542 1543 1542 1542 1543 1543 1543 1542 1540 1539 1540 1541 1542 1543 1546 1548 1548 1547 1547 1547 1547
1540 1541 1540 1540 1540 1539 1539 1539 1539 1539 1540 1540 1540 1540 1539 1540 1540 1540 1540 1541 1540 1540 1541 1540 1540 1540 1539 1540 1540 1540 1541 1541 1541 1542 1542 1541 1542 1542 1541 1540 1540 1540 1540 1541 1541 1541 1541 1541 1540 1539 1538 1537 1538 1538 1538 1540 1541 1542 1542 1543 1543 1544 1545
1540 1540 1540 1540 1540 1538 1538 1538 1537 1537 1538 1538 1538 1538 1537 1538 1538 1538 1538 1538 1538 1538 1538 1538 1538 1537 1537 1537 1537 1537 1537 1538 1538 1539 1538 1539 1539 1539 1539 1539 1539 1539 1539 1539 1539 1539 1538 1538 1537 1536 1535 1535 1535 1535 1535 1536 1537 1538 1539 1540 1541 1541 1542
1540 1540 1539 1539 1539 1538 1538 1537 1537 1537 1536 1536 1536 1536 1536 1536 1536 1535 1535 1535 1535 1535 1535 1535 1535 1535 1535 1535 1534 1534 1534 1534 1535 1536 1535 1536 1536 1536 1536 1536 1536 1536 1536 1536 1536 1536 1535 1535 1534 1534 1533 1533 1533 1533 1533 1533 1534 1534 1535 1536 1537 1537 1538
1539 1538 1538 1538 1538 1537 1537 1537 1536 1536 1535 1535 1535 1534 1534 1534 1534 1534 1534 1533 1533 1534 1533 1533 1533 1532 1532 1532 1532 1532 1532 1532 1533 1533 1534 1534 1533 1533 1534 1534 1534 1534 1534 1534 1535 1534 1534 1533 1532 1532 1531 1531 1531 1531 1530 1530 1530 1531 1532 1533 1533 1533 1534
1538 1538 1538 1537 1537 1537 1536 1536 1536 1535 1535 1534 1534 1533 1533 1532 1532 1532 1532 1532 1532 1532 1531 1531 1531 1530 1530 1530 1530 1530 1531 1531 1531 1531 1532 1532 1532 1532 1532 1532 1533 1533 1533 1534 1534 1533 1532 1531 1530 1530 1529 1529 1528 1528 1528 1528 1529 1528 1528 1529 1529 1530 1530
1538 1538 1537 1537 1537 1537 1536 1536 1535 1535 1534 1534 1533 1532 1532 1531 1531 1531 1531 1530 1531 1530 1529 1529 1528 1528 1528 1528 1528 1528 1529 1529 1529 1529 1530 1530 1530 1530 1530 1530 1530 1530 1530 1530 1530 1529 1529 1528 1528 1528 1527 1526 1526 1526 1525 1525 1526 1527 1527 1527 1526 1526 1526
1537 1537 1537 1537 1537 1536 1536 1535 1535 1534 1533 1533 1532 1531 1531 1531 1530 1530 1530 1530 1529 1529 1528 1528 1527 1526 1526 1526 1526 1526 1526 1526 1526 1527 1526 1526 1526 1526 1526 1526 1526 1526 1525 1525 1525 1526 1526 1525 1525 1525 1524 1523 1522 1523 1522 1522 1522 1523 1524 1525 1524 1524 1523
1536 1536 1536 1536 1535 1535 1535 1534 1534 1533 1532 1532 1531 1531 1530 1529 1529 1529 1529 1528 1528 1527 1527 1526 1525 1524 1524 1524 1524 1523 1523 1523 1523 1523 1523 1523 1522 1522 1521 1520 1520 1520 1520 1520 1520 1520 1521 1521 1520 1520 1520 1519 1518 1518 1518 1518 1518 1519 1520 1520 1520 1521 1520
1534 1534 1534 1534 1534 1534 1534 1533 1533 1532 1531 1531 1530 1529 1529 1528 1528 1527 1527 1526 1526 1525 1525 1524 1523 1523 1522 1521 1521 1521 1520 1520 1520 1519 1519 1519 1519 1519 1518 1517 1515 1514 1514 1515 1515 1515 1515 1516 1515 1515 1515 1515 1514 1513 1514 1514 1515 1515 1516 1516 1516 1516 1515